Terminal Aerodrome Forecast
Issued by NWS

Home | Current Version | Previous Version | Graphics & Text | Print | Product List | Glossary On
Versions: 1 2 3 4 5 6 7 8 9 10 11 12 13 14 15 16 17 18 19 20
000
FTUS43 KOAX 230300 AAA
TAFCDR
TAF AMD
KCDR 230317Z 2303/2324 13012KT P6SM VCTS BKN080CB
      TEMPO 2303/2304 VRB30G40KT 3SM TSRAGR
     FM230500 15008KT P6SM SKC
     FM231800 16013G22KT P6SM VCTS SCT100CB=

USA.gov is the U.S. government's official web portal to all federal, state and local government web resources and services.